COSMOS 2251 DEB

Satellite information

Favourite Embed

Satellite Type and Status

DEBRISIN ORBIT

Key statistics

Satellite COSMOS 2251 DEB at a glance.

Uptime

11709

Days in orbit

Revolutions

≈ 13.7

Per day

Orbit

LEO

Low Earth Orbit

Inclination

73.9

Latest

Satellite identification and parameters

Extended collection of information and parameters for COSMOS 2251 DEB.

Object identification

Identified? True

Debris? True

Object name: COSMOS 2251 DEB

International designator: 1993-036AQB

Object number (NORAD): 35706

Object ID (CCSDS): 35706

Country: COMMONWEALTH OF INDEPENDENT STATES (CIS)

Current information (Y/N): Y

RCS size: SMALL

Orbital parameters

Period: 105.462 minutes

Inclination: 73.8882 deg

SMA: 7394.204 km

Apoapsis: 1273.665 km

Periapsis: 758.473 km

RAAN: 328.8114 deg

Eccentricy: 0.0348375

Argument of periapsis: 48.041 deg

Mean anomaly: 314.9835 deg

Mean motion: 13.65417988 rev/day

Mean motion (dot): 0.0000045 rev/day2

B* drag term: 0.00038185 1/REarth

Two-line elements (TLE)

Creation date: July 5, 2025, 6:46 a.m.

Reference frame: TEME

Reference center: EARTH

Epoch: July 4, 2025, 4:04 p.m. UTC

TLE line 0: 0 COSMOS 2251 DEB

TLE line 1: 1 35706U 93036AQB 25185.67005200 .00000450 00000-0 38185-3 0 9990

TLE line 2: 2 35706 73.8882 328.8114 0348375 48.0410 314.9835 13.65417988807946

Live tracking on map

Real-time ground track for satellite COSMOS 2251 DEB.

In-orbit conjunctions

A list of the most updated potential collisions computed for object COSMOS 2251 DEB.

Target Orbit TCA Probability of collision Miss distance Type
METEOR 2-6 LEO 2025-04-04 04:58:08 0.0001738562 580.0 (m) PAYLOAD

Associated space launch

Military communications satellite. Destroyed in a collision with Iridium 33.

COSMOS 2251 DEB was lifted into orbit during the mission ‘Kosmos-3M | Strela-2M 51’, on board a Kosmos-3M space rocket.

The launch took place on June 16, 1993, 4:17 a.m. from 132/1 (132L).

For more information about the launch, click the button.

Launch to space Kosmos-3M | Strela-2M 51
Kosmos-3M | Strela-2M 51

Agency: N/A

Status: Launch Successful

Launch date: June 16, 1993, 4:17 a.m. UTC

Rocket: Kosmos-3M

Launch pad: 132/1 (132L)

Location: Plesetsk Cosmodrome, Russian Federation

...

Latest news about this satellite

There are no fresh news available about this satellite. Check back as we update our databases every day.


Newsletter sign-up

Weekly statistics, charts and insights to help you stay on top of the space industry.